Regional Weather Roundup
Issued by NWS

Home | Current Version | Previous Version | Graphics & Text | Print | Product List | Glossary On
Versions: 1 2 3 4 5 6 7 8 9 10 11 12 13 14 15 16 17 18 19 20 21 22 23 24 25 26 27 28 29 30 31 32 33 34 35 36 37 38 39 40 41 42 43 44 45 46 47 48 49 50
000
ASUS43 KIND 261809
RWRIN

WEATHER ROUNDUP FOR INDIANA
NATIONAL WEATHER SERVICE INDIANAPOLIS IN
200 PM EDT WED JUL 26 2017

NOTE: "FAIR" INDICATES FEW OR NO CLOUDS BELOW 12,000 FEET WITH NO
SIGNIFICANT WEATHER AND/OR OBSTRUCTIONS TO VISIBILITY.

* - STATION DOES NOT REPORT WEATHER SUCH AS PRECIPITATION OR FOG.

+ - STATION NOT QUALITY CONTROLLED BY THE NATIONAL WEATHER SERVICE.
    USE DATA WITH CAUTION...ESPECIALLY DEWPOINT AND RELATIVE
    HUMIDITY OBSERVATIONS.

INZ001>003-010>013-019-020-261900-
NORTHWEST INDIANA

CITY           SKY/WX    TMP DP  RH WIND       PRES   REMARKS
GARY /AIRPORT/ CLOUDY    84  66  54 S5        30.06F
KNOX *+        CLOUDY    79  68  69 S6        30.08S
LA PORTE +     PTSUNNY   80  69  70 S8        30.08F
6HR MIN TEMP:  64; 6HR MAX TEMP:  80;

MICHIGAN CITY+ MOSUNNY   81  68  65 S7        30.07F
MONTICELLO +   MOSUNNY   80  66  61 SE5       30.08S
6HR MIN TEMP:  63; 6HR MAX TEMP:  81;

RENSSELAER +   PTSUNNY   81  70  69 SE5       30.08F
VALPARAISO     PTSUNNY   82  70  66 VRB7      30.08F
6HR MIN TEMP:  65; 6HR MAX TEMP:  83;


$$

LMZ046-743>745-261900-
SOUTHERN LAKE MICHIGAN

STATION/POSITION TIME  TEMP    WIND        PRES    WAVE
                       AIR SEA DIR/SP/G            HT
                 (UTC) (F)     (DEG/KT/KT) (MB)    (FT)
BURNS HARBOR     1800   82     190/  7/ 12 1017.9
MICHIGAN CITY    1740   78     200/  5/  7   N/A
5NW MICH CITY    1800   77 75  160/  4/  4   N/A     1

$$

INZ004-005-014>016-021>024-261900-
NORTH CENTRAL INDIANA

CITY           SKY/WX    TMP DP  RH WIND       PRES   REMARKS
ELKHART        MOSUNNY   79  63  57 SW6       30.09F
GOSHEN         SUNNY     81  63  54 S9        30.09F
6HR MIN TEMP:  64; 6HR MAX TEMP:  81;

LOGANSPORT +   MOSUNNY   79  64  61 S5        30.10S
PERU/GRISSOM   CLOUDY    80  67  65 SE7       30.08F
6HR MIN TEMP:  64; 6HR MAX TEMP:  80;

ROCHESTER +    PTSUNNY   81  64  57 SW6       30.10S
SOUTH BEND     MOSUNNY   79  66  64 VRB5      30.09F
6HR MIN TEMP:  65; 6HR MAX TEMP:  80;

WARSAW +       MOSUNNY   77  64  65 SW5       30.09F

$$

INZ006>009-017-018-025>027-261900-
NORTHEAST INDIANA

CITY           SKY/WX    TMP DP  RH WIND       PRES   REMARKS
AUBURN +       MOSUNNY   79  61  53 SE5       30.11F
FORT WAYNE     PTSUNNY   79  63  57 S8        30.11F
6HR MIN TEMP:  63; 6HR MAX TEMP:  79;

HUNTINGTON +   MOSUNNY   78  65  64 S7        30.10F
6HR MIN TEMP:  63; 6HR MAX TEMP:  78;

KENDALLVILLE + SUNNY     78  65  63 S8        30.11F

$$

INZ028-029-035-036-043>045-051>053-261900-
WEST CENTRAL INDIANA

CITY           SKY/WX    TMP DP  RH WIND       PRES   REMARKS
GREENCASTLE +  SUNNY     82  70  65 SE6       30.09F
LAFAYETTE      CLOUDY    81  71  71 VRB3      30.07F
6HR MIN TEMP:  64; 6HR MAX TEMP:  81;

TERRE HAUTE    MOSUNNY   84  72  67 SE7       30.06F
6HR MIN TEMP:  66; 6HR MAX TEMP:  84;


$$

INZ030>032-037>040-046>048-054>057-064-065-261900-
CENTRAL INDIANA

CITY           SKY/WX    TMP DP  RH WIND       PRES   REMARKS
CP ATTERBURY + SUNNY     82  68  61 SE6       30.10F
FRANKFORT +    MOSUNNY   84  72  67 S3        30.11F
6HR MIN TEMP:  65; 6HR MAX TEMP:  84;

GREENWOOD *+   SUNNY    N/A N/A N/A S5        30.10F
INDIANAPOLIS   PTSUNNY   83  68  60 E5        30.09F
6HR MIN TEMP:  65; 6HR MAX TEMP:  83;

-EAGLE CREEK   MOSUNNY   84  67  56 SW5       30.08F
6HR MIN TEMP:  66; 6HR MAX TEMP:  84;

KOKOMO +       MOSUNNY   79  67  66 S7        30.11F
6HR MIN TEMP:  64; 6HR MAX TEMP:  80;

MARION +       SUNNY     79  63  57 S3        30.11F
MT COMFORT *+  SUNNY     81  68  65 SE3       30.11F
SHELBYVILLE    SUNNY     84  68  58 SW6       30.09F
6HR MIN TEMP:  64; 6HR MAX TEMP:  84;

ZIONSVILLE +   SUNNY     80  67  63 SE5       30.10F
6HR MIN TEMP:  63; 6HR MAX TEMP:  81;


$$

INZ033-034-041-042-049-050-058-059-261900-
EAST CENTRAL INDIANA

CITY           SKY/WX    TMP DP  RH WIND       PRES   REMARKS
MUNCIE         SUNNY     83  62  49 S8        30.11F
6HR MIN TEMP:  66; 6HR MAX TEMP:  83;

RICHMOND +     SUNNY     77  64  65 CALM      30.14F

$$

INZ060-061-067>069-081>083-085>088-261900-
SOUTHWEST INDIANA

CITY           SKY/WX    TMP DP  RH WIND       PRES   REMARKS
EVANSVILLE     MOSUNNY   89  76  65 E7        30.05F HX 100
6HR MIN TEMP:  70; 6HR MAX TEMP:  90;

HUNTINGBURG *+ SUNNY     87  76  69 S7        30.07F HX  97
6HR MIN TEMP:  70; 6HR MAX TEMP:  88;


$$

INZ062-063-066-070>080-084-089>092-261900-
SOUTH CENTRAL AND SOUTHEAST INDIANA

CITY           SKY/WX    TMP DP  RH WIND       PRES   REMARKS
BEDFORD +      MOSUNNY   84  68  58 CALM      30.08F
BLOOMINGTON    SUNNY     87  70  56 SE8       30.09F
6HR MIN TEMP:  67; 6HR MAX TEMP:  87;

MADISON *+     MOSUNNY   84  64  51 CALM      30.13F
NORTH VERNON + PTSUNNY   84  68  58 SE3       30.12F
SEYMOUR +      MOSUNNY   86  68  54 CALM      30.10F

$$





USA.gov is the U.S. government's official web portal to all federal, state and local government web resources and services.